GW2271 Weather Reports


Display with metric or nautical units.
time (UTC)temp
F
wind
direction
speed
MPH
gust
MPH
rain 1hr
in
rain 24hr
in
rain mn
in
humidity
%
barometer
mb
20260504090133 0 0 0.0 0.0 0.00 0.00 0.00 1005.7
20260504081545 0 0 0.0 0.0 0.00 0.00 0.00 1005.8
20260504044552 0 0 0.0 0.0 0.00 0.00 0.00 1007.2
20260504043042 0 0 0.0 0.0 0.00 0.00 0.00 1007.3
20260504041542 0 0 0.0 0.0 0.00 0.00 0.00 1007.4
20260504034557 0 0 0.0 0.0 0.00 0.00 0.00 1007.8
20260504033119 0 0 0.0 0.0 0.00 0.00 0.00 1007.9
20260504031547 0 0 0.0 0.0 0.00 0.00 0.00 1008.1
20260504030046 0 0 0.0 0.0 0.00 0.00 0.00 1008.3
20260504024544 0 0 0.0 0.0 0.00 0.00 0.00 1008.1
20260504023100 0 0 0.0 0.0 0.00 0.00 0.00 1008.0
20260504021541 0 0 0.0 0.0 0.00 0.00 0.00 1007.9
20260504020041 0 0 0.0 0.0 0.00 0.00 0.00 1007.9
20260504014549 0 0 0.0 0.0 0.00 0.00 0.00 1008.0
20260504013103 0 0 0.0 0.0 0.00 0.00 0.00 1007.8
20260504011547 0 0 0.0 0.0 0.00 0.00 0.00 1007.9
20260504010054 0 0 0.0 0.0 0.00 0.00 0.00 1007.8
20260504004557 0 0 0.0 0.0 0.00 0.00 0.00 1007.8
20260504003043 0 0 0.0 0.0 0.00 0.00 0.00 1007.8
20260504001549 0 0 0.0 1.0 0.00 0.00 0.00 1008.0
20260504000046 0 0 0.0 1.0 0.00 0.00 0.00 1007.8
20260503234547 0 0 0.0 2.0 0.00 0.00 0.00 1008.0
20260503233043 0 221 0.0 3.0 0.00 0.00 0.00 1007.9
20260503231543 0 0 0.0 3.0 0.00 0.00 0.00 1007.8
20260503230057 0 202 0.0 3.0 0.00 0.00 0.00 1007.9
20260503224547 0 0 0.0 3.0 0.00 0.00 0.00 1007.9
20260503223046 0 174 0.0 2.0 0.00 0.00 0.00 1007.8
20260503221543 0 0 0.0 4.0 0.00 0.00 0.00 1008.1
20260503220048 0 0 0.0 3.0 0.00 0.00 0.00 1007.8
20260503214546 0 0 0.0 4.0 0.00 0.00 0.00 1007.9
20260503213059 0 184 2.0 11.0 0.00 0.00 0.00 1007.6
20260503211541 0 94 1.0 7.0 0.00 0.00 0.00 1008.4
20260503210053 0 184 2.0 10.0 0.00 0.00 0.00 1007.9
20260503204553 0 184 1.0 7.0 0.00 0.00 0.00 1008.0
20260503203050 0 0 1.0 6.0 0.00 0.00 0.00 1008.0
20260503201551 0 192 1.0 5.0 0.00 0.00 0.00 1008.9
20260503200057 0 0 1.0 8.0 0.00 0.00 0.00 1008.2
20260503194549 0 0 0.0 4.0 0.00 0.00 0.00 1009.1
20260503193054 0 211 0.0 5.0 0.00 0.00 0.00 1009.0
20260503191543 0 141 1.0 6.0 0.00 0.00 0.00 1009.3
20260503190042 0 236 1.0 10.0 0.00 0.00 0.00 1010.2
20260503184552 0 240 1.0 9.0 0.00 0.00 0.00 1008.8
20260503183101 0 207 1.0 9.0 0.00 0.00 0.00 1010.3
20260503181544 0 0 2.0 9.0 0.00 0.00 0.00 1009.7
20260503180050 0 189 1.0 6.0 0.00 0.00 0.00 1010.1
20260503174547 0 241 2.0 8.0 0.00 0.00 0.00 1010.6
20260503173111 0 0 1.0 9.0 0.00 0.00 0.00 1010.6
20260503171548 0 133 3.0 8.0 0.00 0.00 0.00 1010.8